Location: Wiesbaden
(50.0830°N, 8.2500°E)
Time: 04:36:13
(UTC+02:00)

ISS - Pass Details

Date: 26 March 2020
Orbit: 417 x 423 km, 51.6° (Epoch: 29 March)

Event Time Altitude Azimuth Distance (km) Brightness Sun altitude
Rises 19:50:27 0° 265° (W) 2,358 1.5 -10.3°
Reaches altitude 10° 19:52:33 10° 268° (W) 1,495 0.3 -10.6°
Maximum altitude 19:55:54 69° 352° (N) 450 -3.6 -11.1°
Enters shadow 19:58:36 15° 75° (ENE) 1,234 -1.9 -11.6°
